| time (UTC) | temp F | wind direction | speed MPH | gust MPH | rain 1hr in | rain 24hr in | rain mn in | humidity % | barometer mb |
| 20260901092041 | 84 | 0.0 | 0.0 | 0.00 | 0.00 | 0.00 | 57 | 1017.0 | |
| 20260901091040 | 83 | 0.0 | 0.0 | 0.00 | 0.00 | 0.00 | 57 | 1017.1 | |
| 20260901090042 | 82 | 0.0 | 0.0 | 0.00 | 0.00 | 0.00 | 56 | 1017.2 | |
| 20260901085041 | 83 | 0.0 | 0.0 | 0.00 | 0.00 | 0.00 | 56 | 1016.9 | |
| 20260901084042 | 82 | 0.0 | 0.0 | 0.00 | 0.00 | 0.00 | 55 | 1016.8 | |
| 20260901083041 | 83 | 0.0 | 0.0 | 0.00 | 0.00 | 0.00 | 55 | 1016.7 | |
| 20260901082042 | 82 | 0.0 | 0.0 | 0.00 | 0.00 | 0.00 | 55 | 1016.6 | |
| 20260901081042 | 82 | 0.0 | 0.0 | 0.00 | 0.00 | 0.00 | 55 | 1016.5 | |
| 20260901080041 | 83 | 0.0 | 0.0 | 0.00 | 0.00 | 0.00 | 55 | 1016.3 | |
| 20260901075042 | 84 | 0.0 | 0.0 | 0.00 | 0.00 | 0.00 | 55 | 1016.3 | |
| 20260901074040 | 83 | 0.0 | 0.0 | 0.00 | 0.00 | 0.00 | 55 | 1016.4 | |
| 20260901073042 | 84 | 0.0 | 0.0 | 0.00 | 0.00 | 0.00 | 56 | 1016.2 | |
| 20260901072042 | 83 | 0.0 | 0.0 | 0.00 | 0.00 | 0.00 | 59 | 1016.3 | |
| 20260901071041 | 82 | 0.0 | 0.0 | 0.00 | 0.00 | 0.00 | 61 | 1016.2 | |
| 20260901070041 | 82 | 0.0 | 0.0 | 0.00 | 0.00 | 0.00 | 62 | 1016.5 | |
| 20260901065042 | 81 | 0.0 | 0.0 | 0.00 | 0.00 | 0.00 | 63 | 1016.6 | |
| 20260901064041 | 80 | 0.0 | 0.0 | 0.00 | 0.00 | 0.00 | 63 | 1016.3 | |
| 20260901063041 | 79 | 0.0 | 0.0 | 0.00 | 0.00 | 0.00 | 64 | 1016.6 | |
| 20260901062041 | 78 | 0.0 | 0.0 | 0.00 | 0.00 | 0.00 | 64 | 1016.4 | |
| 20260901061041 | 77 | 0.0 | 0.0 | 0.00 | 0.00 | 0.00 | 66 | 1016.2 | |
| 20260901060042 | 76 | 0.0 | 0.0 | 0.00 | 0.00 | 0.00 | 66 | 1016.0 | |
| 20260901055042 | 76 | 0.0 | 0.0 | 0.00 | 0.00 | 0.00 | 66 | 1016.0 | |
| 20260901054041 | 76 | 0.0 | 0.0 | 0.00 | 0.00 | 0.00 | 66 | 1016.0 | |
| 20260901053043 | 76 | 0.0 | 0.0 | 0.00 | 0.00 | 0.00 | 67 | 1015.9 | |
| 20260901052042 | 76 | 0.0 | 0.0 | 0.00 | 0.00 | 0.00 | 68 | 1015.6 | |
| 20260901051041 | 75 | 0.0 | 0.0 | 0.00 | 0.00 | 0.00 | 68 | 1015.7 | |
| 20260901050042 | 75 | 0.0 | 0.0 | 0.00 | 0.00 | 0.00 | 68 | 1015.5 | |
| 20260901045042 | 75 | 0.0 | 0.0 | 0.00 | 0.00 | 0.00 | 68 | 1015.5 | |
| 20260901044040 | 75 | 0.0 | 0.0 | 0.00 | 0.00 | 0.00 | 70 | 1015.4 | |
| 20260901043042 | 74 | 0.0 | 0.0 | 0.00 | 0.00 | 0.00 | 73 | 1015.4 | |
| 20260901042041 | 74 | 0.0 | 0.0 | 0.00 | 0.00 | 0.00 | 72 | 1015.3 | |
| 20260901041042 | 75 | 0.0 | 0.0 | 0.00 | 0.00 | 0.00 | 68 | 1015.0 | |
| 20260901040042 | 75 | 0.0 | 0.0 | 0.00 | 0.00 | 0.00 | 68 | 1014.9 | |
| 20260901035041 | 74 | 0.0 | 0.0 | 0.00 | 0.00 | 0.00 | 74 | 1014.8 | |
| 20260901034040 | 74 | 0.0 | 0.0 | 0.00 | 0.00 | 0.00 | 76 | 1014.7 | |
| 20260901033041 | 74 | 0.0 | 0.0 | 0.00 | 0.00 | 0.00 | 76 | 1014.9 | |
| 20260901032042 | 74 | 0.0 | 0.0 | 0.00 | 0.00 | 0.00 | 76 | 1014.6 | |
| 20260901031040 | 75 | 0.0 | 0.0 | 0.00 | 0.00 | 0.00 | 75 | 1014.2 | |
| 20260901030040 | 75 | 0.0 | 0.0 | 0.00 | 0.00 | 0.00 | 75 | 1014.3 | |
| 20260901025041 | 74 | 0.0 | 0.0 | 0.00 | 0.00 | 0.00 | 75 | 1014.4 | |
| 20260901024042 | 75 | 0.0 | 0.0 | 0.00 | 0.00 | 0.00 | 75 | 1014.2 | |
| 20260901023040 | 76 | 0.0 | 0.0 | 0.00 | 0.00 | 0.00 | 74 | 1014.3 | |
| 20260901022042 | 76 | 0.0 | 0.0 | 0.00 | 0.00 | 0.00 | 75 | 1014.1 | |
| 20260901021041 | 76 | 0.0 | 0.0 | 0.00 | 0.00 | 0.00 | 74 | 1014.3 | |
| 20260901020041 | 76 | 0.0 | 0.0 | 0.00 | 0.00 | 0.00 | 74 | 1014.2 | |
| 20260901015041 | 76 | 0.0 | 0.0 | 0.00 | 0.00 | 0.00 | 73 | 1014.1 | |
| 20260901014041 | 76 | 0.0 | 0.0 | 0.00 | 0.00 | 0.00 | 73 | 1014.1 | |
| 20260901013042 | 76 | 0.0 | 0.0 | 0.00 | 0.00 | 0.00 | 74 | 1014.3 | |
| 20260901012042 | 77 | 0.0 | 0.0 | 0.00 | 0.00 | 0.00 | 73 | 1014.1 | |
| 20260901011042 | 77 | 0.0 | 0.0 | 0.00 | 0.00 | 0.00 | 74 | 1014.3 | |
| 20260901010042 | 76 | 0.0 | 0.0 | 0.00 | 0.00 | 0.00 | 74 | 1014.2 | |
| 20260901005042 | 77 | 0.0 | 0.0 | 0.00 | 0.00 | 0.00 | 74 | 1014.3 | |
| 20260901004041 | 77 | 0.0 | 0.0 | 0.00 | 0.00 | 0.00 | 73 | 1013.8 | |
| 20260901003041 | 77 | 0.0 | 0.0 | 0.00 | 0.00 | 0.00 | 74 | 1014.1 | |
| 20260901002041 | 77 | 0.0 | 0.0 | 0.00 | 0.00 | 0.00 | 73 | 1013.8 | |
| 20260901001041 | 77 | 0.0 | 0.0 | 0.00 | 0.00 | 0.00 | 73 | 1013.7 | |
| 20260901000041 | 77 | 0.0 | 0.0 | 0.00 | 0.00 | 0.00 | 73 | 1013.6 | |
| 20260831235042 | 78 | 0.0 | 0.0 | 0.00 | 0.00 | 0.00 | 72 | 1013.5 | |
| 20260831234041 | 78 | 0.0 | 0.0 | 0.00 | 0.00 | 0.00 | 71 | 1013.0 | |
| 20260831233042 | 78 | 0.0 | 0.0 | 0.00 | 0.00 | 0.00 | 71 | 1013.1 | |
| 20260831232042 | 78 | 0.0 | 0.0 | 0.00 | 0.00 | 0.00 | 71 | 1012.8 | |
| 20260831231040 | 78 | 0.0 | 0.0 | 0.00 | 0.00 | 0.00 | 71 | 1012.7 | |
| 20260831230042 | 78 | 0.0 | 0.0 | 0.00 | 0.00 | 0.00 | 71 | 1012.3 | |
| 20260831225041 | 78 | 0.0 | 0.0 | 0.00 | 0.00 | 0.00 | 71 | 1012.1 | |
| 20260831224040 | 78 | 0.0 | 0.0 | 0.00 | 0.00 | 0.00 | 71 | 1012.2 | |
| 20260831223041 | 78 | 0.0 | 0.0 | 0.00 | 0.00 | 0.00 | 72 | 1012.1 | |
| 20260831222042 | 78 | 0.0 | 0.0 | 0.00 | 0.00 | 0.00 | 71 | 1011.9 | |
| 20260831221042 | 78 | 0.0 | 0.0 | 0.00 | 0.00 | 0.00 | 72 | 1011.9 | |
| 20260831220042 | 78 | 0.0 | 0.0 | 0.00 | 0.00 | 0.00 | 72 | 1011.7 | |
| 20260831215042 | 79 | 0.0 | 0.0 | 0.00 | 0.00 | 0.00 | 73 | 1011.9 | |
| 20260831214041 | 79 | 0.0 | 0.0 | 0.00 | 0.00 | 0.00 | 73 | 1011.5 | |
| 20260831213041 | 79 | 0.0 | 0.0 | 0.00 | 0.00 | 0.00 | 73 | 1011.7 | |
| 20260831212041 | 79 | 0.0 | 0.0 | 0.00 | 0.00 | 0.00 | 73 | 1011.5 | |
| 20260831211041 | 79 | 0.0 | 0.0 | 0.00 | 0.00 | 0.00 | 72 | 1011.5 | |
| 20260831210042 | 79 | 0.0 | 0.0 | 0.00 | 0.00 | 0.00 | 72 | 1011.5 | |
| 20260831205042 | 80 | 0.0 | 0.0 | 0.00 | 0.00 | 0.00 | 72 | 1011.1 | |
| 20260831204041 | 80 | 0.0 | 0.0 | 0.00 | 0.00 | 0.00 | 72 | 1010.5 | |
| 20260831203040 | 80 | 0.0 | 0.0 | 0.00 | 0.00 | 0.00 | 72 | 1010.6 | |
| 20260831202041 | 80 | 0.0 | 0.0 | 0.00 | 0.00 | 0.00 | 72 | 1010.6 | |
| 20260831201041 | 80 | 0.0 | 0.0 | 0.00 | 0.00 | 0.00 | 72 | 1010.3 | |
| 20260831200042 | 80 | 0.0 | 0.0 | 0.00 | 0.00 | 0.00 | 71 | 1010.2 | |
| 20260831195041 | 81 | 0.0 | 0.0 | 0.00 | 0.00 | 0.00 | 70 | 1010.2 | |
| 20260831194041 | 81 | 0.0 | 0.0 | 0.00 | 0.00 | 0.00 | 71 | 1009.9 | |
| 20260831193042 | 81 | 0.0 | 0.0 | 0.00 | 0.00 | 0.00 | 70 | 1009.8 | |
| 20260831192042 | 82 | 0.0 | 0.0 | 0.00 | 0.00 | 0.00 | 70 | 1009.7 | |
| 20260831191042 | 82 | 0.0 | 0.0 | 0.00 | 0.00 | 0.00 | 68 | 1009.3 | |
| 20260831190043 | 83 | 0.0 | 0.0 | 0.00 | 0.00 | 0.00 | 64 | 1009.1 | |
| 20260831185042 | 83 | 0.0 | 0.0 | 0.00 | 0.00 | 0.00 | 62 | 1009.3 | |
| 20260831184042 | 84 | 0.0 | 0.0 | 0.00 | 0.00 | 0.00 | 61 | 1008.8 | |
| 20260831183042 | 85 | 0.0 | 0.0 | 0.00 | 0.00 | 0.00 | 60 | 1008.5 | |
| 20260831182041 | 86 | 0.0 | 0.0 | 0.00 | 0.00 | 0.00 | 59 | 1008.6 | |
| 20260831181041 | 86 | 0.0 | 0.0 | 0.00 | 0.00 | 0.00 | 59 | 1008.5 | |
| 20260831180041 | 86 | 0.0 | 0.0 | 0.00 | 0.00 | 0.00 | 58 | 1008.2 | |
| 20260831175042 | 87 | 0.0 | 0.0 | 0.00 | 0.00 | 0.00 | 58 | 1008.2 | |
| 20260831174041 | 87 | 0.0 | 0.0 | 0.00 | 0.00 | 0.00 | 58 | 1008.1 | |
| 20260831173042 | 87 | 0.0 | 0.0 | 0.00 | 0.00 | 0.00 | 58 | 1008.3 | |
| 20260831172041 | 88 | 0.0 | 0.0 | 0.00 | 0.00 | 0.00 | 57 | 1008.5 | |
| 20260831171040 | 88 | 0.0 | 0.0 | 0.00 | 0.00 | 0.00 | 58 | 1008.5 | |
| 20260831170041 | 88 | 0.0 | 0.0 | 0.00 | 0.00 | 0.00 | 57 | 1008.3 | |
| 20260831165041 | 88 | 0.0 | 0.0 | 0.00 | 0.00 | 0.00 | 56 | 1008.3 | |
| 20260831164040 | 88 | 0.0 | 0.0 | 0.00 | 0.00 | 0.00 | 57 | 1008.6 | |
| 20260831163041 | 89 | 0.0 | 0.0 | 0.00 | 0.00 | 0.00 | 57 | 1008.5 | |
| 20260831162041 | 89 | 0.0 | 0.0 | 0.00 | 0.00 | 0.00 | 56 | 1008.6 | |
| 20260831161042 | 89 | 0.0 | 0.0 | 0.00 | 0.00 | 0.00 | 56 | 1009.1 | |
| 20260831160042 | 89 | 0.0 | 0.0 | 0.00 | 0.00 | 0.00 | 56 | 1008.8 | |
| 20260831155041 | 90 | 0.0 | 0.0 | 0.00 | 0.00 | 0.00 | 56 | 1008.8 | |
| 20260831154042 | 90 | 0.0 | 0.0 | 0.00 | 0.00 | 0.00 | 56 | 1009.0 | |
| 20260831153042 | 90 | 0.0 | 0.0 | 0.00 | 0.00 | 0.00 | 55 | 1009.0 | |
| 20260831152041 | 90 | 0.0 | 0.0 | 0.00 | 0.00 | 0.00 | 56 | 1008.8 | |
| 20260831151040 | 90 | 0.0 | 0.0 | 0.00 | 0.00 | 0.00 | 56 | 1008.6 | |
| 20260831150041 | 90 | 0.0 | 0.0 | 0.00 | 0.00 | 0.00 | 55 | 1008.7 | |
| 20260831145043 | 90 | 0.0 | 0.0 | 0.00 | 0.00 | 0.00 | 56 | 1009.0 | |
| 20260831144040 | 90 | 0.0 | 0.0 | 0.00 | 0.00 | 0.00 | 56 | 1009.0 | |
| 20260831143042 | 90 | 0.0 | 0.0 | 0.00 | 0.00 | 0.00 | 56 | 1009.2 | |
| 20260831142041 | 90 | 0.0 | 0.0 | 0.00 | 0.00 | 0.00 | 56 | 1009.0 | |
| 20260831141041 | 90 | 0.0 | 0.0 | 0.00 | 0.00 | 0.00 | 56 | 1008.8 | |
| 20260831140042 | 90 | 0.0 | 0.0 | 0.00 | 0.00 | 0.00 | 56 | 1009.1 | |
| 20260831135041 | 90 | 0.0 | 0.0 | 0.00 | 0.00 | 0.00 | 57 | 1009.2 | |
| 20260831134042 | 89 | 0.0 | 0.0 | 0.00 | 0.00 | 0.00 | 56 | 1009.3 | |
| 20260831133042 | 90 | 0.0 | 0.0 | 0.00 | 0.00 | 0.00 | 57 | 1009.6 | |
| 20260831132041 | 90 | 0.0 | 0.0 | 0.00 | 0.00 | 0.00 | 57 | 1009.6 | |
| 20260831131042 | 90 | 0.0 | 0.0 | 0.00 | 0.00 | 0.00 | 56 | 1009.8 | |
| 20260831130041 | 91 | 0.0 | 0.0 | 0.00 | 0.00 | 0.00 | 57 | 1009.9 | |
| 20260831125041 | 91 | 0.0 | 0.0 | 0.00 | 0.00 | 0.00 | 57 | 1009.9 | |
| 20260831124041 | 91 | 0.0 | 0.0 | 0.00 | 0.00 | 0.00 | 57 | 1009.7 | |
| 20260831123043 | 90 | 0.0 | 0.0 | 0.00 | 0.00 | 0.00 | 58 | 1009.7 | |
| 20260831122042 | 90 | 0.0 | 0.0 | 0.00 | 0.00 | 0.00 | 58 | 1009.8 | |
| 20260831121041 | 90 | 0.0 | 0.0 | 0.00 | 0.00 | 0.00 | 58 | 1009.8 | |
| 20260831120042 | 90 | 0.0 | 0.0 | 0.00 | 0.00 | 0.00 | 59 | 1010.2 | |
| 20260831115042 | 89 | 0.0 | 0.0 | 0.00 | 0.00 | 0.00 | 59 | 1010.4 | |
| 20260831114040 | 90 | 0.0 | 0.0 | 0.00 | 0.00 | 0.00 | 57 | 1010.3 | |
| 20260831113042 | 90 | 0.0 | 0.0 | 0.00 | 0.00 | 0.00 | 59 | 1010.6 | |
| 20260831112041 | 90 | 0.0 | 0.0 | 0.00 | 0.00 | 0.00 | 57 | 1010.8 | |
| 20260831111040 | 91 | 0.0 | 0.0 | 0.00 | 0.00 | 0.00 | 58 | 1010.6 | |
| 20260831110042 | 90 | 0.0 | 0.0 | 0.00 | 0.00 | 0.00 | 57 | 1010.8 | |
| 20260831105042 | 91 | 0.0 | 0.0 | 0.00 | 0.00 | 0.00 | 58 | 1010.8 | |
| 20260831104040 | 90 | 0.0 | 0.0 | 0.00 | 0.00 | 0.00 | 57 | 1011.0 | |
| 20260831103042 | 91 | 0.0 | 0.0 | 0.00 | 0.00 | 0.00 | 57 | 1010.8 | |
| 20260831102041 | 92 | 0.0 | 0.0 | 0.00 | 0.00 | 0.00 | 58 | 1010.9 | |
| 20260831101041 | 91 | 0.0 | 0.0 | 0.00 | 0.00 | 0.00 | 57 | 1011.1 | |
| 20260831100042 | 91 | 0.0 | 0.0 | 0.00 | 0.00 | 0.00 | 57 | 1011.2 | |
| 20260831095042 | 91 | 0.0 | 0.0 | 0.00 | 0.00 | 0.00 | 56 | 1011.1 | |
| 20260831094041 | 91 | 0.0 | 0.0 | 0.00 | 0.00 | 0.00 | 57 | 1011.3 | |
| 20260831093041 | 90 | 0.0 | 0.0 | 0.00 | 0.00 | 0.00 | 56 | 1011.5 |